星链-32080 (STARLINK-32080 )

导读

STARLINK-32080是美国SpaceX公司星链(Starlink)星座的卫星,于2024年5月8日发射。它属于星链互联网星座组网卫星,旨在为全球提供低延迟、高速宽带互联网服务,尤其覆盖偏远地区与网络基础设施薄弱区域,进一步扩充星链星座的在轨规模与服务覆盖能力。

基本信息
目录编号:
59683
目录名称:
STARLINK-32080
国际标识:
2024-086B
轨道中心:
EARTH
卫星名称:
星链-32080
卫星全名:
星链-32080 (STARLINK-32080 )
卫星状态:
在轨 (已飞行850 天)
发射日期:
2024-05-08 UTC
国别 :
美国 (US)
星等 :
--
轨道信息
数据来源 国际轨道数据 AOE轨道数据
星历时间 2026-09-05T08:35:35+0800
14小时前
查看轨道信息
2026-09-03T23:00:00+0800
2天前
查看轨道信息
半长轴 6861.194km 6861.182km
偏心率 0.000126 0.0001008
轨道倾角 43.000° 43.001°
近地点辐角 269.782° 232.241°
升交点赤经 131.007° 138.915°
平近点角 90.289° 341.430°
近地点 482.192km 482.353km
远地点 483.922km 483.737km
周期 94.267分钟 94.267分钟
每日圈数 15.275776 15.275816
详细信息
固有亮度:
5
最大亮度:
1.5
卫星平台:
Starlink v2.0 mini
覆盖范围:
全球
运营商:
太空探索技术公司
运营商所在国:
美国
制造商(研发单位):
太空探索技术公司
制造商所在国:
美国
使用方式:
暂无
卫星简介
星链(Starlink)计划是由太空探索技术公司(SpaceX)提出的一个巨型低轨卫星互联网星座项目,计划在2019年至2024年间在太空搭建由约1.2万颗卫星组成的“星链”网络,其中1584颗将部署在地球上空550千米处的近地轨道,并从2020年开始工作。该卫星仍在工作。
2D轨道图
3D轨道图
轨道高度分析图
轨道倾角分析图
轨道综合分析图
查看轨道综合分析图
交会数据列表
事件ID 空间交会对象 最接近时刻(TCA) 交会距离 交会风险概率(CRP) 交会风险指数(CRI) 操作
CDM_260907-212205-968306-763521
2026-09-07T
21:22:39+0000
0.050 km
近距离
1.365884E-3 极高风险 0.98
CDM_260907-100905-752705-968322
2026-09-07T
10:09:35+0000
0.571 km
远距离
7.880743E-5 中风险 0.73
CDM_260906-023705-968306-441521
2026-09-06T
02:37:52+0000
2.921 km
极远距离
1.238594E-6 低风险 0.37
CDM_260907-225605-968306-763521
2026-09-07T
22:56:49+0000
2.445 km
极远距离
1.116921E-6 低风险 0.36
CDM_260907-194805-968306-763521
2026-09-07T
19:48:30+0000
2.494 km
极远距离
1.079254E-6 低风险 0.36
CDM_260907-140405-752705-968321
2026-09-07T
14:04:59+0000
2.491 km
极远距离
9.788668E-7 极低风险 0.35